Weather in Sisaket

Thailand     15°06′43″N   104°19′48″E
temp.,
°C
wind,
m/s
gust,
m/s
humid.,
%
clouds,
%
prec.,
mm/h
press.,
hPa
HPBL,
m
21 may, sat
sat2101:00+25ssw4109088 8.5 1006431
04:00+25ssw41090100 0.6 1006424
07:00+26s498455 0.6 1007476
10:00+29s567084 0.0 1007979
13:00+32sw565595 0.2 10041736
16:00+30ssw676451 1.5 10021214
19:00+27ssw498195 2.6 1003431
22:00+26ssw51284100 0.1 1005594
22 may, sun
sun2201:00+25ssw51185100 0.1 1004582
04:00+24ssw498981 0.0 1002486
07:00+25ssw5884100 0.0 1004494
10:00+30sw6764100 0.4 10041285
13:00+31sw786272 2.7 10011456
16:00+30ssw696572 1.1 10001279
19:00+27ssw6117777 1.7 1002594
22:00+26ssw5118195 0.0 1003589
23 may, mon
mon2301:00+25ssw5108314 0.0 1003616
04:00+24ssw488789 0.0 1003448
07:00+25ssw4784100 0.0 1003408
10:00+28sw4568100 0.0 1005880
13:00+31sw455888 1.2 10021388
16:00+30sw456164 2.0 10011118
19:00+27sw3679100 4.5 1004131
22:00+26sw488499 1.7 1006274
24 may, tue
tue2401:00+25ssw4987100 1.9 1005400
04:00+25ssw4987100 0.1 1005366
07:00+25ssw5985100 0.4 1006423
10:00+26sw5880100 0.2 1008547
13:00+30sw786470 2.8 10051369
16:00+29sw577082 2.8 1004974
19:00+26sw61284100 7.1 1006478
22:00+25sw51188100 0.1 1009476
25 may, wed
wed2501:00+25sw5128896 0.1 1007530
04:00+24sw51191100 1.0 1007492
07:00+25ssw4987100 1.9 1008458
10:00+28sw5874100 3.5 1008747
13:00+30sw686799 5.4 10061226
16:00+29sw676993 2.3 10041023
19:00+26sw51087100 7.6 1005346
22:00+25ssw5993100 7.2 1007425